TimeCST,TemperatureF,Dew PointF,Humidity,Sea Level PressureIn,VisibilityMPH,Wind Direction,Wind SpeedMPH,Gust SpeedMPH,PrecipitationIn,Events,Conditions,WindDirDegrees,DateUTC
12:56 AM,28.0,26.1,92,30.46,10.0,Calm,Calm,-,N/A,,Clear,0,2012-11-17 06:56:00
1:56 AM,26.1,25.2,96,30.46,8.0,Calm,Calm,-,N/A,,Clear,0,2012-11-17 07:56:00
2:56 AM,28.0,26.1,92,30.46,8.0,Calm,Calm,-,N/A,,Clear,0,2012-11-17 08:56:00
3:56 AM,26.1,25.2,96,30.48,6.0,Calm,Calm,-,N/A,,Clear,0,2012-11-17 09:56:00
4:56 AM,23.0,22.1,96,30.51,5.0,Calm,Calm,-,N/A,,Clear,0,2012-11-17 10:56:00
5:56 AM,22.1,21.0,96,30.51,5.0,Calm,Calm,-,N/A,,Clear,0,2012-11-17 11:56:00
6:56 AM,24.1,23.0,96,30.53,6.0,Calm,Calm,-,N/A,,Clear,0,2012-11-17 12:56:00
7:56 AM,32.9,31.1,93,30.53,8.0,Calm,Calm,-,N/A,,Clear,0,2012-11-17 13:56:00
8:56 AM,43.0,32.9,68,30.53,10.0,Calm,Calm,-,N/A,,Clear,0,2012-11-17 14:56:00
9:56 AM,48.9,32.9,54,30.53,10.0,Calm,Calm,-,N/A,,Clear,0,2012-11-17 15:56:00
11:56 AM,57.9,34.0,41,30.48,10.0,North,8.1,-,N/A,,Clear,350,2012-11-17 17:56:00
12:56 PM,59.9,32.0,35,30.46,10.0,NNE,9.2,-,N/A,,Clear,20,2012-11-17 18:56:00
1:56 PM,59.9,31.1,34,30.45,10.0,North,10.4,-,N/A,,Clear,10,2012-11-17 19:56:00
2:56 PM,59.9,30.0,32,30.43,10.0,North,8.1,-,N/A,,Clear,10,2012-11-17 20:56:00
3:56 PM,57.9,31.1,36,30.44,10.0,Calm,Calm,-,N/A,,Clear,0,2012-11-17 21:56:00
4:56 PM,41.9,31.1,66,30.45,10.0,Calm,Calm,-,N/A,,Clear,0,2012-11-17 22:56:00
5:56 PM,41.0,30.0,65,30.46,5.0,Calm,Calm,-,N/A,,Haze,0,2012-11-17 23:56:00
6:56 PM,34.9,30.0,82,30.47,7.0,Calm,Calm,-,N/A,,Clear,0,2012-11-18 00:56:00
7:56 PM,31.1,29.1,92,30.47,4.0,Calm,Calm,-,N/A,,Clear,0,2012-11-18 01:56:00
8:56 PM,28.0,26.1,92,30.46,3.0,Calm,Calm,-,N/A,,Clear,0,2012-11-18 02:56:00
9:56 PM,29.1,28.0,96,30.45,3.0,Calm,Calm,-,N/A,,Clear,0,2012-11-18 03:56:00
10:56 PM,28.0,26.1,92,30.44,4.0,Calm,Calm,-,N/A,,Clear,0,2012-11-18 04:56:00
11:56 PM,26.1,25.2,96,30.45,8.0,Calm,Calm,-,N/A,,Clear,0,2012-11-18 05:56:00